Sample Charts Sidebar
> Live data! Your data is on the web site for you to access within minutes
 
> Detailed data is easily downloaded as data file, which can be opened with Excel
 
> Charts can be customised if necessary
  Chart 1
 

(A maximum of 50 rows are displayed here. Use "Export Data" to see all rows in the date range.)
Date Collected Temperature
(Celcius)
Wind-chill
(Celcius)
Wind Speed
(km/hr)
Gust
(km/hr)
Wind Direction
(degrees)
2019-12-10 02:00 5.0 5.0 2 5 35
2019-12-10 01:00 5.3 5.3 2 5 40
2019-12-10 00:00 5.6 5.6 1 2 37
2019-12-09 23:00 6.1 6.2 1 3 59
2019-12-09 22:00 6.3 6.3 1 3 41
2019-12-09 21:00 6.7 6.7 0 1 319
2019-12-09 20:00 7.8 7.9 1 3 47
2019-12-09 19:00 9.5 9.7 0 1 57
2019-12-09 18:00 11.4 11.7 1 3 236
2019-12-09 17:00 13.2 12.9 3 8 213
2019-12-09 16:00 14.2 13.5 4 8 178
2019-12-09 15:00 15.3 13.0 5 13 210
2019-12-09 14:00 14.9 13.8 4 9 222
2019-12-09 13:00 15.2 14.0 4 9 221
2019-12-09 12:00 14.1 13.6 3 8 209
2019-12-09 11:00 14.0 12.9 4 7 225
2019-12-09 10:00 11.2 11.1 1 4 199
2019-12-09 09:00 6.9 6.5 1 2 22
2019-12-09 08:00 2.4 2.3 0 1 1
2019-12-09 07:00 2.3 2.2 1 2 46
2019-12-09 06:00 2.6 2.6 1 3 56
2019-12-09 05:00 3.0 3.1 1 2 6
2019-12-09 04:00 3.3 3.3 1 3 17
2019-12-09 03:00 3.5 3.5 0 2 45
2019-12-09 02:00 3.9 4.0 0 2 24
2019-12-09 01:00 5.0 5.1 0 1 23
2019-12-09 00:00 6.2 6.3 1 1 14
2019-12-08 23:00 6.9 6.9 0 2 286
2019-12-08 22:00 7.0 7.2 0 2 298
2019-12-08 21:00 7.9 7.8 2 4 147
2019-12-08 20:00 8.6 8.7 1 4 146
2019-12-08 19:00 9.6 9.5 2 6 115
2019-12-08 18:00 10.7 10.7 2 6 86
2019-12-08 17:00 12.1 12.1 2 5 89
2019-12-08 16:00 13.0 13.0 2 5 93
2019-12-08 15:00 14.0 13.2 4 10 109
2019-12-08 14:00 14.4 12.2 6 13 128
2019-12-08 13:00 15.2 13.9 4 11 101
2019-12-08 12:00 15.5 15.1 3 8 93
2019-12-08 11:00 14.4 13.5 3 10 124
2019-12-08 10:00 12.5 12.1 2 6 125
2019-12-08 09:00 7.6 7.0 1 3 334
2019-12-08 08:00 5.2 5.2 1 3 6
2019-12-08 07:00 3.2 2.8 1 6 143
2019-12-08 06:00 2.4 2.4 0 2 16
2019-12-08 05:00 3.0 3.1 0 2 10
2019-12-08 04:00 3.5 3.5 0 2 36
2019-12-08 03:00 4.4 4.4 0 2 325
2019-12-08 02:00 4.4 4.4 1 2 21
2019-12-08 01:00 4.7 4.8 0 2 3